Cedar Rapids, IA

11:49 PM CST on December 11, 2019 (GMT -0600)
The Eastern Iowa Airport

Weather History for KCID - August, 2019

Change the Weather History Date:

Friday, August 30, 2019

  Actual Average Record
Temperature  
Mean Temperature 62 °F 69 °F  
Max Temperature 72 °F 80 °F 100 °F (1953)
Min Temperature 52 °F 58 °F 37 °F (1915)
Degree Days  
Heating Degree Days 3 1  
Month to date heating degree days 5 11  
Since 1 June heating degree days 16 44  
Since 1 July heating degree days 5 15  
Cooling Degree Days 0 5  
Month to date cooling degree days 150 195  
Year to date cooling degree days 652 662  
Since 1 June cooling degree days 624 613  
Growing Degree Days 12 (Base 50)    
Moisture  
Dew Point 54 °F    
Average Humidity 73    
Maximum Humidity 93    
Minimum Humidity 53    
Precipitation  
Precipitation 0.00 in 0.14 in 1.81 in (1956)
Month to date precipitation 5.19 4.34  
Year to date precipitation 27.78 25.16  
Sea Level Pressure  
Sea Level Pressure 30.14 in    
Wind  
Wind Speed 4 mph (NNE)    
Max Wind Speed 15 mph    
Max Gust Speed 19 mph    
Visibility 10 miles    
Events      
T = Trace of Precipitation, MM = Missing Value Source: NWS Daily Summary

Daily Weather History Graph

Daily Weather History Graph

Search for Another Location

Airport or City:

Astronomy

Aug. 30, 2019 Rise Set
Actual Time 6:30 AM CDT 7:43 PM CDT
Civil Twilight 6:01 AM CDT 8:12 PM CDT
Nautical Twilight 5:26 AM CDT 8:47 PM CDT
Astronomical Twilight 4:50 AM CDT 9:23 PM CDT
Moon 6:30 AM CDT (8/30) 8:20 PM CDT (8/30)
Length of Visible Light 14h 11m
Length of Day
13h 13m
New Moon, 0% of the Moon is Illuminated
Aug 30
New Moon
Sep 5
First Quarter
Sep 13
Full
Sep 21
Last Quarter
Sep 28
New

Hourly Weather History & Observations

Time (CDT) Temp. Dew Point Humidity Pressure Visibility Wind Dir Wind Speed Gust Speed Precip Events Conditions
12:52 AM 62.1 °F 53.1 °F 72% 30.01 in 10.0 mi North 13.8 mph - N/A   Clear
1:52 AM 62.1 °F 53.1 °F 72% 30.00 in 10.0 mi North 9.2 mph - N/A   Clear
2:52 AM 60.1 °F 53.1 °F 78% 30.00 in 10.0 mi North 8.1 mph - N/A   Clear
3:52 AM 59.0 °F 52.0 °F 78% 30.05 in 10.0 mi North 5.8 mph - N/A   Clear
4:52 AM 57.0 °F 52.0 °F 83% 30.06 in 10.0 mi NNE 4.6 mph - N/A   Clear
5:52 AM 53.1 °F 52.0 °F 96% 30.11 in 10.0 mi West 4.6 mph - N/A   Clear
6:52 AM 54.0 °F 52.0 °F 93% 30.14 in 10.0 mi NW 4.6 mph - N/A   Clear
7:52 AM 55.9 °F 54.0 °F 93% 30.17 in 10.0 mi NW 4.6 mph - N/A   Clear
8:52 AM 59.0 °F 55.0 °F 87% 30.17 in 10.0 mi NW 4.6 mph - N/A   Clear
9:52 AM 63.0 °F 55.0 °F 75% 30.16 in 10.0 mi North 6.9 mph - N/A   Clear
10:52 AM 66.0 °F 55.0 °F 68% 30.16 in 10.0 mi NNE 8.1 mph - N/A   Clear
11:52 AM 68.0 °F 54.0 °F 61% 30.17 in 10.0 mi NE 3.5 mph - N/A   Clear
12:52 PM 69.1 °F 53.1 °F 57% 30.15 in 10.0 mi ESE 3.5 mph - N/A   Clear
1:52 PM 69.1 °F 55.0 °F 61% 30.16 in 10.0 mi Variable 4.6 mph - N/A   Partly Cloudy
2:52 PM 70.0 °F 54.0 °F 57% 30.15 in 10.0 mi Calm Calm - N/A   Mostly Cloudy
3:01 PM 70.0 °F 55.0 °F 59% 30.16 in 10.0 mi ESE 6.9 mph - N/A   Scattered Clouds
3:03 PM 70.0 °F 55.0 °F 59% 30.16 in 10.0 mi Calm Calm - N/A   Scattered Clouds
3:52 PM 71.1 °F 53.1 °F 53% 30.14 in 10.0 mi Calm Calm - N/A   Scattered Clouds
4:52 PM 72.0 °F 54.0 °F 53% 30.16 in 10.0 mi ENE 4.6 mph - N/A   Clear
5:52 PM 71.1 °F 55.0 °F 57% 30.17 in 10.0 mi SE 3.5 mph - N/A   Clear
6:52 PM 68.0 °F 57.0 °F 68% 30.17 in 10.0 mi South 3.5 mph - N/A   Clear
7:52 PM 63.0 °F 57.0 °F 81% 30.18 in 10.0 mi North - - N/A   Clear
8:52 PM 59.0 °F 55.9 °F 90% 30.19 in 10.0 mi SE 3.5 mph - N/A   Clear
9:52 PM 57.9 °F 55.9 °F 93% 30.20 in 10.0 mi SE 3.5 mph - N/A   Clear
10:52 PM 61.0 °F 55.9 °F 83% 30.22 in 10.0 mi Calm Calm - N/A   Clear
11:52 PM 60.1 °F 57.0 °F 90% 30.22 in 10.0 mi Calm Calm - N/A   Clear